INTELSAT 33E DEB, 61991

Orbit data source: Space-Track

INTELSAT 33E DEB, 61991 is space debris in GEO originally from a launch on Wed, 24 Aug 2016 UTC launched from the French Guiana (FRGUI). Debris objects in space refer to the collection of defunct objects orbiting the Earth. Examples of debris include non-operational satellites, rocket bodies, and fragments generated from explosions, collisions, or faulty payload assembly.

Loading next visibility...
Identifier
61991, 2016-053H
Orbit
GEO
Country
Flag of USUS / ITSO
Related business
Manufacturer
Boeing/ES
Mission
Spacecraft
Bus & Motor
Unknown
Mass
Unknown
Launch date (UTC)
2016-08-24 (10 years ago)
Launch vehicle
Unknown
Launch site
French Guiana (FRGUI)
Object type
Payload
Rocket body
Debris
Shape & HBR
Unknown shape, 1.1 m
Radar Cross Section
Medium (>0.1 m² and <1 m²)

Expand to show TLE details & history
Last TLE update: 1 day ago

TLE from 1 day ago
0 INTELSAT 33E DEB
1 61991U 16053H   26165.66724481 -.00000202  00000-0  00000-0 0  9994
2 61991   1.6614  91.6222 0117698 258.7885  98.9655  1.02042233  6165
Epoch: 2026-06-14T16:00Z
TLE epoch observation values (Epoch: 2026-06-14T16:00:49.951Z)
Latitude
-0°
Longitude
-52.47387°
Altitude
35,378.634 km
Speed
3.087 km/s
True Right ascension
06h 02m 47s
True Declination
0° 00' 00"
Sunlit
Object was in daylight at epoch
Visualization orbit readout
Latitude
Unknown
Longitude
Unknown
Altitude
Unknown
Speed
Unknown
Apparent Right ascension
Unknown
Apparent Declination
Unknown
Sunlit
N/A
Visualization observer readout
Local Sidereal Time
03:55:52
Azimuth
Unknown
Elevation
Unknown
Doppler factor
Unknown
Orbital elements
Apogee altitude
35,789.072 km
Perigee altitude
34,808.019 km
Semi-major axis
41,676.682 km
Eccentricity
0.01177
Inclination
1.6614°
RAAN
91.6222°
Arg. of periapsis
258.7885°
True anomaly
100.29457°
Mean anomaly
98.9655°
Eccentric anomaly
99.63036°
Mean motion
0.2551 °/min
Orbital period
1,411.23 mins
BSTAR
0
Loading maneuver chart data...
Computing Atmospheric mass density...
Loading historical data...
Loading historical data...
Loading historical data...
Loading historical data...
Loading historical data...
Loading historical data...
Loading historical data...

Documentation

Showing up to 5 results
|